Regional Weather Roundup
Issued by NWS

Home | Current Version | Previous Version | Text Only | Print | Product List | Glossary On
Versions: 1 2 3 4 5 6 7 8 9 10 11 12 13 14 15 16 17 18 19 20 21 22 23 24 25 26 27 28 29 30 31 32 33 34 35 36 37 38 39 40 41 42 43 44 45 46 47 48 49 50
000
ASUS43 KTOP 301559
RWRKS

WEATHER ROUNDUP FOR KANSAS
NATIONAL WEATHER SERVICE GOODLAND KS
1000 AM CST FRI JAN 30 2015

NOTE:  "FAIR" INDICATES FEW OR NO CLOUDS BELOW 12,000 FEET WITH NO
SIGNIFICANT WEATHER AND/OR OBSTRUCTIONS TO VISIBILITY.

KSZ001>006-013>018-027>032-041>047-301700-
NORTHWEST KANSAS

CITY           SKY/WX    TMP DP  RH WIND       PRES   REMARKS
GOODLAND       CLOUDY    37  27  67 S18       30.28F WCI  27
HAYS           CLOUDY    30  19  64 S7        30.45S
HILL CITY      CLOUDY    33  25  72 S6        30.41F
RUSSELL        CLOUDY    30  26  85 S7        30.45S
$$

KSZ061>065-074>080-084>089-301700-
SOUTHWEST KANSAS

CITY           SKY/WX    TMP DP  RH WIND       PRES   REMARKS
DODGE CITY     PTSUNNY   38  26  62 S17       30.43F WCI  28
ELKHART          N/A     38  25  60 S13         N/A  WCI  30
GARDEN CITY    CLOUDY    38  25  59 S17       30.39F WCI  28
LIBERAL        CLOUDY    39  27  60 S13       30.44S WCI  32
$$

KSZ066>073-081>083-090>101-301700-
SOUTHEAST KANSAS

CITY           SKY/WX    TMP DP  RH WIND       PRES   REMARKS
CHANUTE        PTSUNNY   31  27  85 VRB3      30.56R
COFFEYVILLE    MOSUNNY   34  26  72 VRB5      30.58R
HUTCHINSON     CLOUDY    34  28  79 S7        30.52S
MEDICINE LODGE   N/A     34  27  75 S6        30.51S
NEWTON         CLOUDY    32  23  69 S9        30.53F
PARSONS        PTSUNNY   33  26  75 VRB3      30.57S
WICHITA INTL   CLOUDY    34  27  75 S7        30.54R
WICHITA JABRA  CLOUDY    33  27  78 SE8       30.53S
WINFIELD       PTSUNNY   32  26  78 CALM      30.56S
$$

KSZ007>012-019>026-033>040-048>060-102>105-301700-
NORTHEAST KANSAS

CITY           SKY/WX    TMP DP  RH WIND       PRES   REMARKS
CONCORDIA      PTSUNNY   31  27  85 S8        30.50R
EMPORIA        PTSUNNY   28  25  88 CALM      30.55R
LAWRENCE       MOSUNNY   27  23  85 CALM      30.57S
MANHATTAN      PTSUNNY   25  23  92 CALM      30.55S
OLATHE IND     MOSUNNY   29  22  75 CALM      30.56R
OLATHE EXE     MOSUNNY   28  21  75 CALM      30.54S
SALINA         CLOUDY    31  26  82 S8        30.53R
TOPEKA BILLARD MOSUNNY   27  23  85 CALM      30.57F
TOPEKA FORBES  PTSUNNY   29  23  78 E3        30.55F
$$



USA.gov is the U.S. government's official web portal to all federal, state and local government web resources and services.